Total_Precipitation_Accumulation
0.41 0.38 0.48 0.69 0.81 0.79 0.79 0.87 1.15 1.18 1.10 1.07 1.04 1.01 0.93 0.94 0.93 0.85 0.78 0.78 0.82 0.89 0.92 0.92 0.91 1.01 1.08 1.17 1.30 1.45 1.61 1.62 1.50 1.36 1.25 1.18 1.12 1.02 0.98 0.99 1.01 1.10 1.15 1.16
0.33 0.30 0.37 0.53 0.63 0.65 0.61 0.62 0.73 0.84 0.86 0.75 0.72 0.72 0.71 0.72 0.67 0.62 0.58 0.55 0.54 0.55 0.55 0.53 0.52 0.54 0.59 0.72 0.91 1.16 1.41 1.44 1.29 1.15 1.02 0.97 0.99 1.00 0.98 0.95 1.00 1.03 0.98 1.00
0.48 0.39 0.39 0.64 0.63 0.56 0.55 0.48 0.51 0.63 0.65 0.55 0.59 0.64 0.65 0.70 0.70 0.55 0.43 0.41 0.43 0.43 0.41 0.40 0.39 0.39 0.44 0.55 0.72 0.91 1.03 1.04 0.98 0.92 0.91 0.97 1.02 0.98 0.97 0.98 0.98 1.00 0.96 0.96
0.52 0.54 0.79 0.97 0.78 0.64 0.60 0.42 0.37 0.42 0.43 0.45 0.56 0.59 0.59 0.56 0.55 0.54 0.42 0.32 0.31 0.34 0.35 0.39 0.39 0.42 0.47 0.55 0.63 0.72 0.76 0.78 0.76 0.78 0.82 0.90 0.94 0.93 1.00 1.04 0.98 0.98 1.03 1.03
0.64 0.73 0.88 0.88 0.73 0.73 0.74 0.59 0.37 0.39 0.38 0.34 0.34 0.35 0.36 0.36 0.33 0.32 0.29 0.25 0.22 0.23 0.24 0.28 0.30 0.31 0.32 0.34 0.37 0.41 0.45 0.49 0.53 0.57 0.61 0.65 0.69 0.78 0.92 1.00 1.02 1.05 1.10 1.10
0.69 0.79 0.92 0.72 0.44 0.45 0.63 0.79 0.35 0.32 0.31 0.24 0.22 0.31 0.31 0.28 0.29 0.26 0.22 0.24 0.24 0.21 0.21 0.25 0.27 0.29 0.27 0.27 0.28 0.29 0.30 0.34 0.40 0.44 0.47 0.50 0.58 0.66 0.75 0.80 0.89 1.01 1.03 1.03
0.62 0.83 0.97 0.69 0.45 0.43 0.76 0.81 0.32 0.25 0.23 0.21 0.21 0.22 0.21 0.23 0.25 0.23 0.21 0.22 0.25 0.25 0.23 0.25 0.28 0.29 0.29 0.29 0.31 0.34 0.36 0.37 0.39 0.41 0.43 0.49 0.56 0.61 0.68 0.74 0.84 0.90 0.93 0.96
0.73 1.08 1.21 0.87 0.64 0.66 0.63 0.33 0.23 0.19 0.18 0.19 0.19 0.17 0.17 0.20 0.22 0.20 0.19 0.20 0.22 0.24 0.26 0.28 0.28 0.29 0.30 0.30 0.32 0.37 0.39 0.41 0.42 0.43 0.47 0.51 0.57 0.63 0.67 0.72 0.75 0.80 0.84 0.89
0.73 0.98 0.92 0.75 0.62 0.49 0.40 0.30 0.21 0.18 0.17 0.20 0.20 0.20 0.22 0.22 0.20 0.20 0.20 0.19 0.20 0.22 0.23 0.24 0.26 0.27 0.29 0.34 0.37 0.39 0.40 0.42 0.45 0.46 0.48 0.49 0.54 0.61 0.66 0.68 0.71 0.75 0.80 0.86
0.48 0.52 0.46 0.41 0.38 0.30 0.26 0.25 0.21 0.20 0.22 0.24 0.25 0.24 0.22 0.22 0.22 0.21 0.20 0.19 0.18 0.21 0.24 0.24 0.26 0.28 0.34 0.37 0.37 0.37 0.41 0.44 0.44 0.45 0.46 0.49 0.52 0.57 0.62 0.66 0.68 0.73 0.80 0.84
0.42 0.36 0.31 0.28 0.28 0.25 0.20 0.18 0.17 0.20 0.23 0.25 0.25 0.25 0.23 0.22 0.24 0.23 0.21 0.21 0.24 0.27 0.29 0.29 0.31 0.34 0.40 0.44 0.41 0.38 0.39 0.41 0.41 0.43 0.47 0.49 0.50 0.53 0.55 0.60 0.72 0.80 0.84 0.87
0.43 0.31 0.32 0.32 0.26 0.21 0.19 0.17 0.16 0.18 0.18 0.20 0.22 0.24 0.25 0.22 0.23 0.25 0.25 0.27 0.29 0.31 0.34 0.35 0.34 0.37 0.40 0.44 0.46 0.45 0.45 0.42 0.40 0.41 0.44 0.47 0.49 0.49 0.53 0.56 0.66 0.73 0.74 0.75
0.26 0.23 0.22 0.22 0.21 0.19 0.18 0.18 0.18 0.19 0.18 0.18 0.20 0.22 0.25 0.24 0.22 0.23 0.26 0.27 0.30 0.33 0.34 0.34 0.33 0.32 0.32 0.36 0.39 0.40 0.43 0.45 0.44 0.43 0.43 0.47 0.48 0.47 0.53 0.54 0.56 0.62 0.66 0.68
0.15 0.18 0.20 0.19 0.17 0.17 0.18 0.20 0.19 0.17 0.17 0.18 0.20 0.21 0.22 0.22 0.20 0.21 0.25 0.29 0.32 0.33 0.34 0.36 0.34 0.32 0.31 0.32 0.37 0.41 0.41 0.44 0.47 0.47 0.48 0.49 0.54 0.58 0.60 0.63 0.64 0.60 0.59 0.61
0.15 0.16 0.18 0.18 0.18 0.17 0.19 0.22 0.23 0.20 0.19 0.21 0.22 0.24 0.23 0.23 0.24 0.24 0.26 0.28 0.31 0.34 0.36 0.38 0.34 0.32 0.33 0.34 0.35 0.37 0.40 0.45 0.48 0.54 0.58 0.56 0.58 0.64 0.66 0.60 0.57 0.57 0.58 0.60
0.18 0.18 0.18 0.21 0.24 0.23 0.21 0.23 0.25 0.24 0.23 0.22 0.25 0.29 0.30 0.29 0.27 0.26 0.26 0.29 0.32 0.35 0.38 0.39 0.37 0.37 0.36 0.35 0.36 0.36 0.40 0.49 0.52 0.54 0.57 0.57 0.57 0.62 0.63 0.63 0.63 0.65 0.66 0.71
0.22 0.23 0.25 0.27 0.28 0.27 0.26 0.28 0.28 0.28 0.27 0.26 0.28 0.30 0.32 0.31 0.30 0.30 0.30 0.31 0.32 0.35 0.37 0.40 0.40 0.40 0.40 0.39 0.41 0.43 0.43 0.46 0.50 0.53 0.56 0.58 0.58 0.62 0.65 0.66 0.69 0.72 0.71 0.76
0.22 0.23 0.25 0.28 0.31 0.31 0.29 0.29 0.29 0.29 0.29 0.31 0.33 0.34 0.36 0.37 0.38 0.38 0.35 0.33 0.33 0.38 0.43 0.46 0.45 0.42 0.40 0.40 0.43 0.46 0.46 0.47 0.49 0.55 0.57 0.60 0.63 0.67 0.72 0.72 0.72 0.76 0.76 0.78
0.25 0.25 0.26 0.27 0.30 0.34 0.33 0.32 0.32 0.32 0.32 0.32 0.33 0.36 0.37 0.37 0.36 0.36 0.35 0.36 0.38 0.43 0.45 0.45 0.48 0.41 0.38 0.42 0.49 0.52 0.54 0.55 0.57 0.59 0.61 0.64 0.67 0.69 0.75 0.76 0.76 0.79 0.82 0.81
0.28 0.27 0.26 0.26 0.28 0.32 0.36 0.35 0.34 0.34 0.35 0.34 0.33 0.33 0.33 0.31 0.32 0.33 0.35 0.39 0.42 0.43 0.41 0.44 0.44 0.42 0.43 0.46 0.53 0.53 0.58 0.63 0.68 0.71 0.72 0.73 0.74 0.78 0.82 0.80 0.81 0.84 0.87 0.88
0.27 0.26 0.26 0.27 0.28 0.31 0.35 0.37 0.36 0.33 0.32 0.32 0.32 0.33 0.33 0.31 0.30 0.32 0.37 0.45 0.45 0.41 0.38 0.43 0.40 0.40 0.45 0.53 0.58 0.58 0.61 0.64 0.68 0.73 0.75 0.76 0.79 0.80 0.84 0.83 0.83 0.87 0.89 0.90
0.28 0.26 0.26 0.26 0.26 0.29 0.32 0.32 0.31 0.27 0.27 0.29 0.30 0.32 0.34 0.36 0.34 0.37 0.41 0.46 0.49 0.51 0.44 0.41 0.39 0.47 0.58 0.63 0.55 0.56 0.61 0.66 0.69 0.74 0.77 0.80 0.83 0.83 0.86 0.89 0.90 0.90 0.93 0.97
0.29 0.26 0.25 0.26 0.27 0.28 0.32 0.34 0.31 0.29 0.29 0.28 0.30 0.33 0.39 0.45 0.47 0.49 0.50 0.47 0.46 0.55 0.52 0.48 0.52 0.61 0.71 0.60 0.53 0.55 0.58 0.61 0.63 0.67 0.75 0.84 0.88 0.88 0.90 0.91 0.91 0.92 0.96 1.02
0.31 0.29 0.27 0.27 0.29 0.33 0.38 0.39 0.37 0.34 0.34 0.35 0.35 0.34 0.36 0.42 0.47 0.48 0.50 0.55 0.58 0.58 0.52 0.57 0.63 0.69 0.69 0.58 0.57 0.60 0.61 0.62 0.63 0.65 0.70 0.75 0.79 0.82 0.88 0.93 0.97 0.99 0.98 1.00
0.32 0.30 0.30 0.31 0.36 0.41 0.41 0.41 0.41 0.39 0.40 0.43 0.43 0.39 0.36 0.39 0.46 0.48 0.45 0.47 0.59 0.63 0.58 0.64 0.72 0.73 0.65 0.61 0.62 0.64 0.66 0.70 0.73 0.74 0.74 0.74 0.76 0.81 0.88 0.93 0.99 1.06 1.08 1.07
0.35 0.34 0.36 0.40 0.43 0.43 0.44 0.47 0.47 0.45 0.43 0.45 0.44 0.40 0.37 0.37 0.39 0.41 0.42 0.45 0.52 0.64 0.67 0.68 0.67 0.69 0.67 0.70 0.72 0.73 0.72 0.73 0.75 0.76 0.73 0.75 0.79 0.84 0.92 0.98 1.00 1.07 1.10 1.10
0.39 0.39 0.41 0.40 0.39 0.41 0.44 0.49 0.50 0.49 0.48 0.49 0.49 0.44 0.42 0.43 0.44 0.46 0.47 0.52 0.57 0.62 0.70 0.76 0.75 0.76 0.77 0.77 0.78 0.79 0.78 0.78 0.79 0.81 0.79 0.81 0.83 0.85 0.91 0.98 1.04 1.09 1.13 1.15